Location: Zagreb
(45.8000°N, 16.0000°E)
Time: 01:06:37
(UTC+02:00)

Transit 2A Rocket - Pass Details

Date: 23 January 2022
Orbit: 592 x 909 km, 66.7° (Epoch: 26 May)

Event Time Altitude Azimuth Distance (km) Brightness Sun altitude
Rises 04:24:37 0° 324° (NW) 3,449 - -31.7°
Reaches altitude 10° 04:27:14 10° 321° (NW) 2,468 - -31.2°
Maximum altitude 04:32:48 58° 243° (WSW) 920 - -30.2°
Exits shadow 04:36:36 18° 169° (S) 1,788 6.9 -29.6°
Drops below altitude 10° 04:37:51 10° 165° (SSE) 2,246 7.5 -29.4°
Sets 04:40:08 0° 162° (SSE) 3,114 8.4 -29.0°
